Flag for Qatar Weather past 2 weeks in Al-Jamiliyah, Qatar

Now
86 °F

Clear.


Feels Like: 90 °F
Forecast: 79 / 103 °F
Wind: 5 mph from Southeast

Location: Al Udeid

Current Time: Sep 22, 2014 at 1:19:34 AM

Latest Report: Sep 22, 2014 at 12:58 AM


Visibility: N/A

Pressure: 29.63 "Hg

Humidity: 60%

Dew point: 70 °F

Location of Al-JamiliyahLocation

Historic Weather in Al-Jamiliyah — Graph

°F

Al-Jamiliyah temperature yesterday

Maximum temperature yesterday: 107 °F (at 1:58 PM)
Minimum temperature yesterday: 78 °F (at 3:58 AM)
Average temperature yesterday: 92 °F

Past Weeks' High & Low Weather Summary

 TemperatureHumidityPressure
High112 °F (Sep 7, 12:58 PM)86% (Sep 16, 5:58 AM)29.83 "Hg (Sep 16, 5:58 AM)
Low78 °F (Sep 21, 3:58 AM)8% (Sep 12, 1:58 PM)29.55 "Hg (Sep 7, 1:58 AM)
Average94 °F46%29.66 "Hg
* Reported Sep 6 11:58 PM — Sep 21 11:58 PM, Al-Jamiliyah, Weather by CustomWeather, © 2014

Note: Actual official high and low records may vary slightly from our data, if they occured in-between our weather recording intervals... More about our weather records

Advertising

Al-Jamiliyah weather history for previous 24 hours

 ConditionsComfort  
Time TempWeatherWind HumidityBarometerVisibility
11:58 PM
Sep 21
86 °FClear.6 mph55%29.65 "HgN/A
10:58 PM89 °FClear.7 mph54%29.66 "HgN/A
9:58 PM90 °FClear.2 mph51%29.67 "HgN/A
8:58 PM90 °FClear.8 mph58%29.68 "HgN/A
7:58 PM92 °FClear.8 mph54%29.67 "HgN/A
6:58 PM94 °FSunny.10 mph40%29.65 "HgN/A
5:58 PM97 °FSunny.12 mph32%29.64 "HgN/A
4:58 PM101 °FSunny.10 mph18%29.63 "HgN/A
3:58 PM104 °FSunny.13 mph15%29.62 "HgN/A
2:58 PM107 °FSunny.3 mph8%29.62 "HgN/A
1:58 PM107 °FSunny.5 mph8%29.63 "HgN/A
12:58 PM105 °FSunny.1 mph10%29.64 "HgN/A
11:58 AM105 °FSunny.3 mph10%29.67 "HgN/A
10:58 AM103 °FSunny.2 mph13%29.69 "HgN/A
9:58 AM101 °FSunny.5 mph17%29.71 "HgN/A
8:58 AM96 °FSunny.3 mph28%29.72 "HgN/A
7:58 AM90 °FSunny.3 mph40%29.71 "HgN/A
6:58 AM82 °FSunny.7 mph61%29.69 "HgN/A
5:58 AM78 °FClear.7 mph82%29.67 "HgN/A
4:58 AM78 °FClear.9 mph83%29.66 "HgN/A
3:58 AM78 °FClear.9 mph77%29.64 "HgN/A
2:58 AM79 °FClear.5 mph72%29.64 "HgN/A
1:58 AM81 °FClear.6 mph69%29.64 "HgN/A
Weather by CustomWeather, © 2014

See weather overviewHow to use our weather pages